EW9686 Weather Reports


time (UTC)temp
C
wind
direction
speed
KPH
gust
KPH
rain 1hr
cm
rain 24hr
cm
rain mn
cm
humidity
%
barometer
mb
20260504214519 22 225 8.0 22.5 0.00 0.00 0.00 33 1005.3
20260504213520 22 225 8.0 22.5 0.00 0.00 0.00 33 1005.5
20260504212519 22 225 9.7 29.0 0.00 0.00 0.00 32 1005.6
20260504211539 22 225 9.7 25.7 0.00 0.00 0.00 33 1005.6
20260504210519 22 225 8.0 19.3 0.00 0.00 0.00 33 1005.5
20260504205519 22 225 9.7 19.3 0.00 0.00 0.00 33 1005.5
20260504204519 22 225 9.7 17.7 0.00 0.00 0.00 33 1005.6
20260504203519 22 225 8.0 17.7 0.00 0.00 0.00 33 1005.5
20260504202519 22 225 11.3 20.9 0.00 0.00 0.00 32 1005.5
20260504201519 22 225 9.7 22.5 0.00 0.00 0.00 33 1005.5
20260504200519 22 225 8.0 19.3 0.00 0.00 0.00 33 1005.7
20260504195519 22 225 12.9 29.0 0.00 0.00 0.00 33 1005.8
20260504194539 22 225 12.9 22.5 0.00 0.00 0.00 34 1006.0
20260504193519 21 225 11.3 25.7 0.00 0.00 0.00 33 1006.1
20260504192519 22 225 4.8 12.9 0.00 0.00 0.00 34 1006.2
20260504191519 21 225 9.7 17.7 0.00 0.00 0.00 34 1006.2
20260504190519 21 225 11.3 22.5 0.00 0.00 0.00 33 1006.5
20260504185519 21 248 11.3 24.1 0.00 0.00 0.00 33 1006.7
20260504184519 21 225 14.5 32.2 0.00 0.00 0.00 35 1006.9
20260504183519 21 225 12.9 29.0 0.00 0.00 0.00 34 1006.9
20260504182519 21 225 14.5 22.5 0.00 0.00 0.00 34 1007.1
20260504181519 21 225 9.7 20.9 0.00 0.00 0.00 35 1007.1
20260504180519 21 225 12.9 30.6 0.00 0.00 0.00 36 1007.3
20260504175519 20 225 9.7 25.7 0.00 0.00 0.00 36 1007.4
20260504174539 20 225 12.9 30.6 0.00 0.00 0.00 35 1007.5
20260504173600 20 225 11.3 24.1 0.00 0.00 0.00 35 1007.5
20260504172559 20 270 8.0 17.7 0.00 0.00 0.00 37 1007.8
20260504171600 20 225 12.9 24.1 0.00 0.00 0.00 36 1007.9
20260504170520 20 248 11.3 20.9 0.00 0.00 0.00 37 1007.9
20260504150519 17 225 6.4 16.1 0.00 0.00 0.00 46 1009.2
20260504140519 16 225 8.0 17.7 0.00 0.00 0.00 54 1009.5
20260504130539 14 225 11.3 22.5 0.00 0.00 0.00 58 1010.2
20260504110519 8 225 4.8 14.5 0.00 0.00 0.00 74 1010.8
20260504100519 7 225 3.2 14.5 0.00 0.00 0.00 73 1010.6
20260504081519 8 225 4.8 11.3 0.00 0.00 0.00 63 1010.3
20260504080540 8 225 4.8 12.9 0.00 0.00 0.00 64 1010.3
20260504050519 8 225 1.6 8.0 0.00 0.00 0.00 60 1009.8
20260504045519 8 225 1.6 6.4 0.00 0.00 0.00 60 1009.8
20260504044519 8 0.0 4.8 0.00 0.00 0.00 60 1009.7
20260504043539 8 0.0 3.2 0.00 0.00 0.00 60 1009.6
20260504042519 8 0.0 1.6 0.00 0.00 0.00 60 1009.5
20260504041519 8 0.0 1.6 0.00 0.00 0.00 58 1009.4
20260504040519 8 0.0 6.4 0.00 0.00 0.00 57 1009.3
20260504035519 8 0.0 3.2 0.00 0.00 0.00 57 1009.3
20260504034540 8 0.0 3.2 0.00 0.00 0.00 56 1009.2
20260504033539 8 0.0 3.2 0.00 0.00 0.00 56 1009.2
20260504032519 8 225 1.6 6.4 0.00 0.00 0.00 56 1009.1
20260504031519 8 0.0 4.8 0.00 0.00 0.00 56 1009.1
20260504030521 8 0.0 3.2 0.00 0.00 0.00 55 1009.1
20260504025520 9 0.0 3.2 0.00 0.00 0.00 53 1009.0
20260504024519 9 0.0 3.2 0.00 0.00 0.00 53 1009.0
20260504023520 9 0.0 1.6 0.00 0.00 0.00 52 1009.1
20260504022519 10 0.0 1.6 0.00 0.00 0.00 49 1009.0
20260504021539 10 225 1.6 8.0 0.00 0.00 0.00 49 1009.0
20260504020520 10 0.0 3.2 0.00 0.00 0.00 50 1009.0
20260504015519 10 0.0 3.2 0.00 0.00 0.00 51 1009.0
20260504014519 10 0.0 6.4 0.00 0.00 0.00 51 1008.8
20260504013519 9 0.0 1.6 0.00 0.00 0.00 52 1008.8
20260504012600 9 0.0 1.6 0.00 0.00 0.00 51 1008.8
20260504011519 9 0.0 0.0 0.00 0.00 0.00 50 1008.6
20260504010540 10 0.0 0.0 0.00 0.00 0.00 49 1008.5
20260504005519 10 0.0 0.0 0.00 0.00 0.00 47 1008.3
20260504004519 11 0.0 1.6 0.00 0.00 0.00 45 1008.2
20260504003519 11 0.0 1.6 0.00 0.00 0.00 44 1008.1
20260504002519 11 0.0 1.6 0.00 0.00 0.00 43 1007.9
20260504001519 12 0.0 1.6 0.00 0.00 0.00 42 1007.8
20260504000522 12 0.0 1.6 0.00 0.00 0.00 39 1007.7
20260503235519 13 0.0 1.6 0.00 0.00 0.00 37 1007.6
20260503234520 13 0.0 3.2 0.00 0.00 0.00 35 1007.5
20260503233519 14 270 1.6 11.3 0.00 0.00 0.00 33 1007.4
20260503232519 15 270 3.2 6.4 0.00 0.00 0.00 32 1007.3
20260503231519 15 270 4.8 12.9 0.00 0.00 0.00 31 1007.4
20260503230520 15 248 8.0 19.3 0.00 0.00 0.00 30 1007.3
20260503225519 15 270 9.7 19.3 0.00 0.00 0.00 30 1007.2
20260503224539 15 270 8.0 22.5 0.00 0.00 0.00 31 1007.1
20260503223519 15 270 9.7 16.1 0.00 0.00 0.00 30 1007.0
20260503222519 15 293 6.4 14.5 0.00 0.00 0.00 31 1007.1
20260503221519 15 270 9.7 20.9 0.00 0.00 0.00 30 1007.1
20260503220540 15 270 6.4 17.7 0.00 0.00 0.00 31 1007.0
20260503215519 15 225 11.3 22.5 0.00 0.00 0.00 30 1007.2